Regional Weather Roundup
Issued by NWS Kansas City/Pleasant Hill, MO

Home | Current Version | Previous Version | Graphics & Text | Print | Product List | Glossary Off
Versions: 1 2 3 4 5 6 7 8 9 10 11 12 13 14 15 16 17 18 19 20 21 22 23 24 25 26 27 28 29 30 31 32 33 34 35 36 37 38 39 40 41 42 43 44 45 46 47 48 49 50

000
ASUS43 KEAX 290311
RWREAX

WEATHER ROUNDUP FOR EASTERN KANSAS AND NORTHWEST MISSOURI
NATIONAL WEATHER SERVICE KANSAS CITY/PLEASANT HILL MO
1000 PM CDT MON JUL 28 2014

KSZ040-057-103>105-MOZ028-029-037-043-290400-
...KANSAS CITY METROPOLITAN AREA...

CITY           SKY/WX    TMP DP  RH WIND       PRES   REMARKS
K.C. INTL      PTCLDY    68  60  75 NW6       30.17R
K.C. DOWNTOWN  CLEAR     74  60  61 CALM      30.16R
LEES SUMMIT    CLEAR     69  58  67 N3        30.17R
OLATHE - IXD   CLEAR     66  59  78 N7        30.18R
OLATHE - OJC   CLEAR     72  59  63 N5        30.17R
LAWRENCE       CLEAR     66  58  75 NW5       30.18R

$$

MOZ001>008-011>017-020>025-030>033-038>040-044>046-053-054-290400-
...NORTHERN AND CENTRAL MISSOURI...

CITY           SKY/WX    TMP DP  RH WIND       PRES   REMARKS
ST. JOSEPH     CLEAR     64  59  83 CALM      30.17R
MOSBY          CLEAR     66  61  82 CALM      30.16R
WARRENSBURG    CLEAR     64  59  82 CALM      30.15R
WHITEMAN AFB   CLEAR     66  49  55 NE1       30.15R
CLINTON        CLEAR     68  61  77 CALM      30.15S
SEDALIA        CLEAR     67  58  72 CALM      30.16R
WARSAW         NOT AVBL
MARSHALL       CLEAR     70  59  68 CALM      30.16S
CHILLICOTHE      N/A     67  60  78 CALM      30.16S
MOBERLY        PTCLDY    61  54  77 NE5       30.17R
KIRKSVILLE     MOCLDY    63  58  83 CALM      30.17R

$$

MOZ041-047>049-056>058-063>065-088>090-097-290400-
...EASTERN AND SOUTHERN MISSOURI...

CITY           SKY/WX    TMP DP  RH WIND       PRES   REMARKS
ST. LOUIS INTL NOT AVBL
SPIRIT OF STL  CLEAR     62  54  74 CALM      30.12R
COLUMBIA       CLEAR     63  55  75 N7        30.16R
JEFFERSON CITY CLEAR     69  55  60 N3        30.14R
MEXICO         CLEAR     63  59  88 N3        30.16R
HANNIBAL       CLOUDY    68  55  64 CALM      30.16R
ROLLA          CLEAR     63  52  67 CALM      30.14R
LEBANON        CLEAR     70  57  64 NE10      30.17R
OSAGE BEACH    CLEAR     66  55  68 CALM      30.15R
SPRINGFIELD    CLEAR     69  57  65 N5        30.15R
BRANSON        CLEAR     72  57  60 NW5       30.16R
NEVADA         CLEAR     68  61  77 N3        30.17R
JOPLIN         CLEAR     73  58  59 NE3       30.15R
WEST PLAINS    CLEAR     69  56  62 N5        30.14R

$$

IAZ060-094-KSZ022-034>040-054-083-096-NEZ052-066-093-290400-
...KANSAS...SOUTHEAST NEBRASKA AND IOWA...

CITY           SKY/WX    TMP DP  RH WIND       PRES   REMARKS
TOPEKA         CLEAR     70  58  65 N5        30.18R
MANHATTAN      CLEAR     72  57  59 N5        30.18R
EMPORIA        CLEAR     70  56  61 NE7       30.17R
CHANUTE        CLEAR     73  57  57 NE7       30.16R
WICHITA        PTCLDY    78  57  48 NE6       30.16R
OMAHA          CLEAR     68  57  68 CALM      30.18R
LINCOLN        CLEAR     66  53  63 N5        30.21R
FALLS CITY     CLEAR     67  56  67 NW3       30.17R
LAMONI         MOCLDY    65  58  78 CALM      30.17R
DES MOINES     PTCLDY    67  58  72 W3        30.16R

$$




USA.gov is the U.S. government's official web portal to all federal, state and local government web resources and services.